Terminal Aerodrome Forecast
Issued by NWS Memphis, TN

Home | Current Version | Previous Version | Text Only | Print | Product List | Glossary On
Versions: 1 2 3 4 5 6 7 8 9 10 11 12 13
000
FTUS44 KMEG 260520
TAFMKL
TAF
KMKL 260520Z 2606/2706 34010KT 6SM BR SCT250
      TEMPO 2608/2612 4SM BR
     FM261500 20004KT P6SM SCT030 BKN250
     FM262200 13004KT P6SM VCTS OVC070CB
     FM270000 VRB03KT P6SM OVC250=

USA.gov is the U.S. government's official web portal to all federal, state and local government web resources and services.